Change the Weather History Date:

Thursday, October 30, 2014

  Actual Average Record
Temperature  
Mean Temperature 34 °F -  
Max Temperature 39 °F 66 °F 69 °F (2008)
Min Temperature 30 °F 42 °F 3 °F (2002)
Degree Days  
Heating Degree Days 30    
Moisture  
Dew Point 30 °F    
Average Humidity 84    
Maximum Humidity 96    
Minimum Humidity 70    
Precipitation  
Precipitation 0.00 in - - ()
Sea Level Pressure  
Sea Level Pressure 30.39 in    
Wind  
Wind Speed 8 mph (NE)    
Max Wind Speed 20 mph    
Max Gust Speed 31 mph    
Visibility 9 miles    
Events      
Averages and records for this station are not official NWS values.
T = Trace of Precipitation, MM = Missing Value Source: NWS Daily Summary

Daily Weather History Graph

Daily Weather History Graph

Search for Another Location

Airport or City:

Trip Planner

Search our weather history database for the weather conditions in past years. The results will help you decide how hot, cold, wet, or windy it might be!

Date:

Astronomy

Oct. 30, 2014 Rise Set
Actual Time 7:35 AM MDT 5:45 PM MDT
Civil Twilight 7:04 AM MDT 6:16 PM MDT
Nautical Twilight 6:28 AM MDT 6:51 PM MDT
Astronomical Twilight 5:53 AM MDT 7:26 PM MDT
Moon 1:42 PM MDT (10/30) No Moon Set
Length of Visible Light 11h 12m
Length of Day
10h 09m
Waxing Crescent, 46% of the Moon is Illuminated
Oct 30
Waxing Crescent
Oct 30
First Quarter
Nov 6
Full
Nov 14
Last Quarter
Nov 22
New

Hourly Weather History & Observations

Time (MDT) Temp. Windchill Dew Point Humidity Pressure Visibility Wind Dir Wind Speed Gust Speed Precip Events Conditions
12:51 AM 37.0 °F 31.0 °F 32.0 °F 82% 30.15 in 10.0 mi WNW 8.1 mph - N/A   Clear
1:51 AM 35.1 °F 27.9 °F 30.9 °F 85% 30.18 in 10.0 mi West 9.2 mph - N/A   Clear
2:51 AM 32.0 °F 25.6 °F 30.0 °F 92% 30.21 in 10.0 mi WNW 6.9 mph - N/A   Clear
3:51 AM 30.0 °F 22.4 °F 28.9 °F 96% 30.22 in 10.0 mi West 8.1 mph - N/A   Clear
4:51 AM 30.0 °F 24.1 °F 28.9 °F 96% 30.26 in 10.0 mi NW 5.8 mph - N/A   Clear
5:35 AM 30.0 °F 22.4 °F 28.0 °F 92% 30.24 in 10.0 mi NNW 8.1 mph - N/A   Scattered Clouds
5:51 AM 30.9 °F 24.3 °F 28.9 °F 92% 30.30 in 10.0 mi NW 6.9 mph - N/A   Mostly Cloudy
6:17 AM 30.0 °F 26.5 °F 28.9 °F 96% 30.25 in 10.0 mi NE 3.5 mph - N/A   Overcast
6:51 AM 33.1 °F 26.1 °F 32.0 °F 96% 30.33 in 7.0 mi North 8.1 mph - N/A   Overcast
7:30 AM 33.1 °F 26.9 °F 30.9 °F 92% 30.30 in 7.0 mi North 6.9 mph - N/A   Overcast
7:51 AM 33.1 °F 26.9 °F 32.0 °F 96% 30.37 in 7.0 mi North 6.9 mph - N/A   Overcast
8:51 AM 34.0 °F 27.2 °F 32.0 °F 92% 30.40 in 6.0 mi NNE 8.1 mph - N/A   Overcast
9:51 AM 34.0 °F 28.0 °F 32.0 °F 92% 30.42 in 6.0 mi NE 6.9 mph - N/A   Overcast
10:51 AM 35.1 °F 32.2 °F 30.9 °F 85% 30.43 in 10.0 mi NNW 3.5 mph - N/A   Overcast
11:40 AM 37.0 °F - 30.9 °F 79% 30.38 in 10.0 mi Calm Calm - N/A   Overcast
11:51 AM 36.0 °F 33.3 °F 30.9 °F 82% 30.45 in 10.0 mi East 3.5 mph - N/A   Overcast
12:51 PM 37.0 °F - 30.9 °F 79% 30.46 in 10.0 mi Calm Calm - N/A   Overcast
1:51 PM 37.9 °F 33.5 °F 30.9 °F 76% 30.46 in 10.0 mi East 5.8 mph - N/A   Overcast
2:45 PM 39.9 °F 35.8 °F 30.9 °F 70% 30.40 in 10.0 mi NE 5.8 mph - N/A   Overcast
2:51 PM 39.0 °F 33.4 °F 30.9 °F 73% 30.47 in 10.0 mi NE 8.1 mph - N/A   Overcast
3:51 PM 37.9 °F 30.9 °F 30.9 °F 76% 30.48 in 10.0 mi ENE 10.4 mph - N/A   Overcast
4:10 PM 37.9 °F 30.5 °F 30.9 °F 76% 30.41 in 10.0 mi East 11.5 mph - N/A   Overcast
4:51 PM 37.0 °F 31.6 °F 30.0 °F 76% 30.50 in 10.0 mi ESE 6.9 mph - N/A   Overcast
5:13 PM 37.0 °F 30.4 °F 30.0 °F 76% 30.42 in 10.0 mi East 9.2 mph - N/A   Overcast
5:51 PM 36.0 °F 28.0 °F 30.0 °F 79% 30.50 in 10.0 mi East 11.5 mph - N/A   Overcast
6:51 PM 35.1 °F 26.9 °F 28.9 °F 78% 30.51 in 10.0 mi ESE 11.5 mph - N/A   Overcast
7:51 PM 35.1 °F 25.2 °F 28.9 °F 78% 30.51 in 10.0 mi ESE 16.1 mph - N/A   Overcast
8:51 PM 35.1 °F 24.8 °F 30.0 °F 82% 30.50 in 9.0 mi ESE 17.3 mph - N/A   Overcast
9:51 PM 33.1 °F 22.2 °F 28.9 °F 85% 30.51 in 10.0 mi ESE 17.3 mph 27.6 mph N/A   Overcast
10:51 PM 33.1 °F 21.5 °F 28.0 °F 82% 30.51 in 9.0 mi ESE 19.6 mph 29.9 mph N/A   Overcast
11:51 PM 33.1 °F 21.5 °F 28.0 °F 82% 30.49 in 8.0 mi SE 19.6 mph 31.1 mph N/A   Overcast